x

West Erie - 16 Nm Nw Of Lorain, Oh (45005) Wave Buoy

5:50am - Wed 24th May 2017 All times are CDT. -5 hours from GMT.

  • Sig Wave height 0.7ft
  • Average Period 3s
  • Wind
    7mph, 7mph gusts
  • Sea Temp 56°f
  • Air Temp 58°f
  • Sea Pressure 1002.4mb
  • West Erie - 16 Nm Nw Of Lorain, Oh
  • West Erie - 16 Nm Nw Of Lorain, Oh

More Historic Weather Station data

Upgrade to MSW Pro to gain access to the past 30 days of data for over 8000 Wavebouys and Weather Stations around the globe.

Join Pro

Comparision Forecast

View Surf forecast
   
Wed 05/24 5:50am 0.7ft  -  3s 7 7 mph 1002.4mb 56f 58f
5:40am  -   -   -  7 9 mph 1002.4mb 56f 58f
5:30am  -   -   -  7 9 mph 1002.3mb 56f 58f
5:20am  -   -   -  7 9 mph 1002.4mb 56f 57f
5:10am  -   -   -  7 7 mph 1002.5mb 56f 57f
5:00am  -   -   -  7 9 mph 1002.5mb 56f 58f
4:50am 0.7ft  -  3s 9 9 mph 1002.5mb 56f 58f
4:40am  -   -   -  9 9 mph 1002.4mb 56f 58f
4:30am  -   -   -  7 9 mph 1002.4mb 56f 57f
4:20am  -   -   -  7 9 mph 1002.3mb 56f 57f
4:10am  -   -   -  9 9 mph 1002.3mb 56f 58f
4:00am  -   -   -  9 9 mph 1002.5mb 56f 58f
3:50am 1ft 4s 3s 7 9 mph 1002.5mb 56f 59f
3:40am 1ft  -  3s 4 7 mph 1002.8mb 56f 58f
3:30am  -   -   -  4 4 mph 1002.9mb 56f 59f
3:20am  -   -   -  7 9 mph 1002.8mb 56f 59f
3:10am  -   -   -  4 9 mph 1003mb 56f 57f
3:00am  -   -   -  7 7 mph 1003mb 56f 57f
2:50am 1.3ft 4s 3s 7 9 mph 1003.2mb 56f 58f
2:40am 1.3ft  -  3s 7 9 mph 1003.3mb 56f 58f
2:30am  -   -   -  7 9 mph 1003.4mb 56f 58f
2:20am  -   -   -  7 9 mph 1003.3mb 56f 58f
2:10am  -   -   -  7 7 mph 1003.4mb 56f 58f
2:00am  -   -   -  9 11 mph 1003.5mb 56f 58f
1:50am 1.3ft 4s 3s 9 11 mph 1003.6mb 56f 58f
1:40am  -   -   -  9 11 mph 1003.7mb 56f 58f
1:30am  -   -   -  9 11 mph 1003.9mb 56f 58f
1:20am  -   -   -  9 11 mph 1003.9mb 56f 57f
1:10am  -   -   -  9 11 mph 1004mb 56f 57f
1:00am  -   -   -  11 13 mph 1004.1mb 56f 57f
12:50am 1.6ft 4s 3s 11 13 mph 1004.2mb 56f 57f
12:40am  -   -   -  11 13 mph 1004mb 56f 57f
12:30am  -   -   -  11 13 mph 1004.3mb 56f 58f
12:20am  -   -   -  11 13 mph 1004.3mb 56f 58f
12:10am  -   -   -  11 13 mph 1004.4mb 56f 58f
12:00am  -   -   -  11 16 mph 1004.5mb 56f 58f
Tue 05/23 11:50pm 1.6ft 4s 3s 13 16 mph 1004.5mb 56f 58f
11:40pm 1.6ft  -  3s 13 13 mph 1004.5mb 56f 58f
11:30pm  -   -   -  13 13 mph 1004.6mb 56f 58f
11:20pm  -   -   -  13 16 mph 1004.7mb 56f 58f
11:10pm  -   -   -  13 16 mph 1004.9mb 56f 58f
11:00pm  -   -   -  13 16 mph 1005mb 56f 58f
10:50pm 2ft 4s 3s 13 16 mph 1004.9mb 56f 58f
10:40pm 2ft  -  3s 13 18 mph 1005mb 56f 58f
10:30pm  -   -   -  13 18 mph 1005.1mb 56f 58f
10:20pm  -   -   -  16 18 mph 1005.3mb 56f 58f
10:10pm  -   -   -  16 18 mph 1005.2mb 56f 58f
10:00pm  -   -   -  16 18 mph 1005.3mb - 58f
9:50pm 2ft 3s 3s 16 18 mph 1005.5mb 56f 58f
9:40pm  -   -   -  16 20 mph 1005.6mb 56f 58f
9:30pm  -   -   -  16 20 mph 1005.6mb 56f 58f
9:20pm  -   -   -  18 20 mph 1005.7mb 56f 58f
9:10pm  -   -   -  18 20 mph 1005.7mb 56f 59f
9:00pm  -   -   -  18 20 mph 1005.7mb 56f 59f
8:50pm 1.3ft 3s 3s 16 20 mph 1005.8mb 56f 58f
8:40pm  -   -   -  16 20 mph 1005.9mb 56f 59f
8:30pm  -   -   -  16 18 mph 1006.1mb 56f 58f
8:20pm  -   -   -  13 16 mph 1006.2mb 56f 58f
8:10pm  -   -   -  13 18 mph 1006.3mb 56f 58f
8:00pm  -   -   -  13 16 mph 1006.3mb 56f 58f
7:50pm 1ft 3s 3s 13 16 mph 1006.3mb 56f 58f
7:40pm  -   -   -  11 16 mph 1006.4mb 57f 58f
7:30pm  -   -   -  11 16 mph 1006.5mb 56f 58f
7:20pm  -   -   -  11 13 mph 1006.5mb 57f 58f
7:10pm  -   -   -  11 13 mph 1006.6mb 56f 58f
7:00pm  -   -   -  11 13 mph - 57f -
6:50pm 1ft 2s 2s 11 13 mph 1006.6mb 57f 58f
6:40pm 1ft  -  2s 11 13 mph 1006.8mb 57f 58f
6:30pm  -   -   -  11 13 mph 1006.8mb 57f 58f
6:20pm  -   -   -  11 16 mph 1006.8mb 57f 58f
6:10pm  -   -   -  11 13 mph 1006.6mb 57f 58f
6:00pm  -   -   -  11 16 mph 1006.6mb 57f 58f
5:50pm 0.7ft  -  2s 11 13 mph 1006.7mb 57f 58f
5:40pm 0.7ft  -  2s 11 13 mph 1006.7mb 57f 58f
5:30pm  -   -   -  11 11 mph 1006.8mb 57f 59f
5:20pm  -   -   -  11 11 mph 1006.9mb 57f 59f
5:10pm  -   -   -  11 11 mph 1007mb 57f 59f
5:00pm  -   -   -  9 11 mph 1007.1mb 57f 59f
4:50pm 0.3ft  -  2s 9 11 mph 1007.2mb 57f 59f
4:40pm  -   -   -  9 11 mph 1007.4mb 57f 59f
4:30pm  -   -   -  9 11 mph 1007.4mb - 59f
4:20pm  -   -   -  9 11 mph 1007.4mb 56f 59f
4:10pm  -   -   -  11 13 mph 1007.2mb 57f 59f
4:00pm  -   -   -  9 11 mph 1007.4mb - 59f
3:50pm 0.3ft  -  3s 9 11 mph 1007.5mb 57f 59f
3:40pm 0.3ft  -  3s 9 11 mph 1007.6mb 57f 59f
3:30pm  -   -   -  9 11 mph 1007.6mb 58f 59f
3:20pm  -   -   -  9 11 mph 1007.7mb 58f 59f
3:10pm  -   -   -  9 11 mph 1007.9mb 58f 59f
3:00pm  -   -   -  9 11 mph 1008.1mb 58f 59f
2:50pm 0.3ft  -  3s 9 11 mph 1008.1mb 57f 59f
2:40pm  -   -   -  9 11 mph 1008.3mb 57f 59f
2:30pm  -   -   -  9 11 mph 1008.4mb 57f 59f
2:20pm  -   -   -  9 9 mph 1008.5mb 56f 59f
2:10pm  -   -   -  9 9 mph 1008.8mb 56f 59f
2:00pm  -   -   -  9 9 mph 1008.8mb 56f 59f
1:50pm 0.3ft  -  3s 9 9 mph 1008.8mb 56f 59f
1:40pm 0.3ft  -  3s 9 9 mph 1009mb 56f 59f
1:30pm  -   -   -  7 9 mph 1009.2mb 56f 59f
1:20pm  -   -   -  7 9 mph 1009.4mb 56f 59f
1:10pm  -   -   -  7 9 mph 1009.4mb 55f 59f
1:00pm  -   -   -  7 9 mph 1009.5mb 55f 59f
12:50pm 0.3ft  -  3s 7 9 mph 1009.7mb 56f 59f
12:40pm  -   -   -  7 7 mph 1009.9mb 56f 59f
12:30pm  -   -   -  7 7 mph 1010.1mb 56f 59f
12:20pm  -   -   -  7 7 mph 1010.3mb 56f 59f
12:10pm  -   -   -  7 7 mph 1010.5mb 56f 60f
12:00pm  -   -   -  4 7 mph 1010.7mb 56f 60f
11:50am 0.3ft  -  3s 4 4 mph 1011.1mb 56f 60f
11:40am  -   -   -  4 4 mph 1011.3mb 56f 60f
11:30am  -   -   -  4 4 mph 1011.5mb 56f 60f
11:20am  -   -   -  2 4 mph 1011.6mb 55f 60f
11:10am  -   -   -  2 4 mph 1011.5mb 55f 59f
11:00am  -   -   -  4 4 mph 1011.6mb 55f 59f
10:50am 0.3ft  -  3s 2 4 mph 1011.8mb 55f 59f
10:40am  -   -   -  2 4 mph 1011.5mb 55f 59f
10:30am  -   -   -  2 2 mph 1011.5mb 55f 58f
10:20am  -   -   -  2 2 mph 1011.7mb 55f 58f
10:10am  -   -   -  2 2 mph 1011.9mb 55f 58f
10:00am  -   -   -  2 2 mph 1012mb 55f 58f
9:50am 0.3ft  -  2s 2 2 mph 1011.8mb 55f 58f
9:40am  -   -   -  4 4 mph 1012.1mb 55f 57f
9:30am  -   -   -  4 7 mph 1012.4mb 55f 57f
9:20am  -   -   -  7 9 mph 1012.5mb 55f 57f
9:10am  -   -   -  7 9 mph 1012.6mb 55f 57f
9:00am  -   -   -  7 9 mph 1012.7mb 55f 57f
8:50am 0.7ft  -  3s 7 9 mph 1012.9mb 55f 57f
8:40am  -   -   -  7 9 mph 1012.9mb 55f 57f
8:30am  -   -   -  7 9 mph 1013.1mb 55f 57f
8:20am  -   -   -  4 7 mph 1013.1mb 55f 57f
8:10am  -   -   -  4 4 mph 1013mb 55f 57f
8:00am  -   -   -  4 4 mph 1013.1mb 55f 57f
7:50am 0.7ft  -  3s 4 7 mph 1013mb 55f 57f
7:40am  -   -   -  7 7 mph 1013mb 55f 57f
7:30am  -   -   -  7 7 mph 1012.9mb 55f 57f
7:20am  -   -   -  7 9 mph 1012.9mb 55f 57f
7:10am  -   -   -  9 9 mph 1013mb 55f 57f
7:00am  -   -   -  9 9 mph 1012.8mb 55f 57f
6:50am 0.7ft  -  3s 9 11 mph 1013mb 55f 57f
6:40am 0.7ft  -  3s 9 11 mph 1013.1mb 55f 57f
6:30am  -   -   -  11 11 mph 1013.1mb 55f 57f
6:20am  -   -   -  11 11 mph 1013.1mb 55f 57f
6:10am  -   -   -  11 11 mph 1013.1mb 55f 57f
6:00am  -   -   -  11 11 mph 1013.1mb 55f 57f
5:50am 0.7ft  -  3s 11 13 mph 1013.1mb 55f 57f
5:40am 0.7ft  -  3s 11 13 mph 1013.1mb 55f 57f
5:30am  -   -   -  11 13 mph 1013.1mb 55f 57f
5:20am  -   -   -  11 13 mph 1013.2mb 55f 57f
5:10am  -   -   -  9 11 mph 1013.2mb 55f 57f
5:00am  -   -   -  11 13 mph 1013.1mb - 57f
4:50am 0.7ft  -  3s 11 13 mph 1013.3mb 55f 57f
4:40am 0.7ft  -  3s 11 13 mph 1013.4mb 55f 57f
4:30am  -   -   -  11 13 mph 1013.2mb 55f 57f
4:20am  -   -   -  11 11 mph 1013.3mb 55f 57f
4:10am  -   -   -  11 13 mph 1013.3mb 55f 57f
4:00am  -   -   -  11 11 mph 1013.3mb 55f 57f
3:50am 0.7ft  -  2s 9 11 mph 1013.3mb 55f 57f
3:40am  -   -   -  9 11 mph 1013.4mb 55f 57f
3:30am  -   -   -  9 11 mph - 55f -
3:20am  -   -   -  9 11 mph 1013.7mb 55f 58f
3:10am  -   -   -  9 11 mph 1013.7mb 55f 58f
3:00am  -   -   -  9 13 mph 1013.7mb 55f 58f
2:50am 0.7ft  -  2s 11 13 mph 1013.8mb 55f 58f
2:40am  -   -   -  11 13 mph 1013.9mb 55f 58f
2:30am  -   -   -  11 11 mph 1014.1mb 55f 58f
2:20am  -   -   -  11 11 mph 1014mb 55f 58f
2:10am  -   -   -  9 11 mph 1014.2mb - 58f
2:00am  -   -   -  9 11 mph 1014.3mb 55f 58f
1:50am 0.3ft  -  2s 9 9 mph 1014.4mb 56f 58f
1:40am  -   -   -  9 11 mph 1014.5mb 56f 58f
1:30am  -   -   -  9 11 mph 1014.7mb 56f 58f
1:20am  -   -   -  9 11 mph 1014.8mb 56f 58f
1:10am  -   -   -  9 11 mph 1014.7mb 56f 58f
1:00am  -   -   -  9 11 mph 1014.9mb 56f 58f
12:50am 0.3ft  -  2s 9 11 mph 1014.9mb 56f 58f
12:40am 0.3ft  -  2s 9 11 mph 1014.8mb 56f 58f
12:30am  -   -   -  9 11 mph 1014.9mb 56f 58f
12:20am  -   -   -  11 13 mph 1015.1mb 56f 58f
12:10am  -   -   -  11 11 mph 1015.1mb 56f 59f
12:00am  -   -   -  11 11 mph 1015.1mb 56f 59f
Mon 05/22 11:50pm 0.3ft  -  3s 11 13 mph 1015.3mb 56f 59f
11:40pm  -   -   -  11 13 mph 1015.2mb 56f 59f
11:30pm  -   -   -  9 11 mph 1015.2mb 56f 59f
11:20pm  -   -   -  11 11 mph 1015.3mb 56f 59f
11:10pm  -   -   -  9 11 mph 1015.3mb 56f 59f
11:00pm  -   -   -  9 11 mph 1015.1mb 56f 58f
10:50pm 0.3ft  -  3s 7 9 mph 1015mb 56f 58f
10:40pm  -   -   -  7 9 mph 1015mb 56f 59f
10:30pm  -   -   -  7 9 mph 1014.9mb 56f 59f
10:20pm  -   -   -  7 7 mph 1014.8mb 56f 59f
10:10pm  -   -   -  4 7 mph 1015mb 56f 59f
10:00pm  -   -   -  7 7 mph 1015.3mb 56f 59f
9:50pm 0.3ft  -  3s 7 7 mph 1015.6mb 56f 58f
9:40pm  -   -   -  7 7 mph 1015.8mb 56f 59f
9:30pm  -   -   -  7 7 mph 1015.9mb 55f 59f
9:20pm  -   -   -  7 9 mph 1015.9mb 55f 59f
9:10pm  -   -   -  7 7 mph 1015.9mb 56f 59f
9:00pm  -   -   -  7 7 mph 1016.1mb 55f 59f
8:50pm 0.3ft  -  3s 7 7 mph 1015.9mb 55f 60f
8:40pm 0.3ft  -  3s 7 7 mph 1015.9mb 55f 59f
8:30pm  -   -   -  4 7 mph 1015.9mb 55f 59f
8:20pm  -   -   -  7 7 mph 1015.7mb 55f 60f
8:10pm  -   -   -  7 7 mph 1015.7mb 55f 61f
8:00pm  -   -   -  7 7 mph 1015.6mb 55f 60f
7:50pm 0.3ft  -  3s 7 7 mph 1015.5mb 55f 60f
7:40pm  -   -   -  4 7 mph 1015.5mb 55f 60f
7:30pm  -   -   -  4 4 mph 1015.6mb 55f 59f
7:20pm  -   -   -  4 7 mph 1015.5mb 55f 59f
7:10pm  -   -   -  7 7 mph 1015.5mb 55f 59f
7:00pm  -   -   -  7 9 mph 1015.5mb - 59f
6:50pm 0.3ft  -  3s 7 7 mph 1015.5mb 55f 59f
6:40pm  -   -   -  4 7 mph 1015.4mb 55f 59f
6:30pm  -   -   -  4 7 mph 1015.4mb 55f 59f
6:20pm  -   -   -  4 7 mph 1015.7mb 55f 59f
6:10pm  -   -   -  4 7 mph 1015.7mb 56f 60f
6:00pm  -   -   -  4 7 mph 1015.7mb 55f 60f
5:50pm 0.7ft  -  3s 4 4 mph 1015.8mb 55f 60f
5:40pm 0.7ft  -  3s 4 7 mph 1015.8mb 55f 59f
5:30pm  -   -   -  4 7 mph 1015.9mb 55f 59f
5:20pm  -   -   -  4 7 mph 1015.8mb 55f 59f
5:10pm  -   -   -  4 7 mph 1015.9mb 55f 60f
5:00pm  -   -   -  7 7 mph 1015.9mb - 60f
4:50pm 0.7ft  -  3s 4 7 mph 1016mb 56f 61f
4:40pm  -   -   -  7 7 mph 1016.2mb 55f 60f
4:30pm  -   -   -  7 7 mph 1016.2mb 55f 60f
4:20pm  -   -   -  4 7 mph 1016.3mb 55f 60f
4:10pm  -   -   -  7 7 mph 1016.3mb 55f 59f
4:00pm  -   -   -  7 7 mph 1016.3mb 55f 60f
3:50pm 1ft 3s 3s 7 9 mph 1016.4mb 55f 59f
3:40pm  -   -   -  4 7 mph 1016.3mb 55f 58f
3:30pm  -   -   -  4 7 mph 1016.4mb 55f 58f
3:20pm  -   -   -  7 7 mph 1016.5mb 55f 58f
3:10pm  -   -   -  7 7 mph 1016.5mb 55f 58f
3:00pm  -   -   -  7 7 mph - 55f -
2:50pm 1.3ft 3s 3s 7 9 mph 1016.4mb 55f 58f
2:40pm  -   -   -  9 11 mph 1016.5mb - 58f
2:30pm  -   -   -  9 9 mph 1016.5mb 55f 58f
2:20pm  -   -   -  7 9 mph 1016.7mb 55f 58f
2:10pm  -   -   -  9 9 mph 1016.7mb 55f 58f
2:00pm  -   -   -  9 9 mph 1016.8mb 55f 57f
1:50pm 1.6ft 4s 3s 9 11 mph 1016.8mb 55f 57f
1:40pm 1.6ft  -  3s 11 13 mph 1016.9mb 55f 57f
1:30pm  -   -   -  11 13 mph 1016.9mb 55f 57f
1:20pm  -   -   -  11 13 mph 1017mb 55f 57f
1:10pm  -   -   -  11 13 mph 1017.1mb 55f 57f
1:00pm  -   -   -  11 13 mph 1017.2mb 55f 57f
12:50pm 2ft 4s 3s 13 18 mph 1017.2mb 55f 56f
12:40pm 2ft  -  3s 13 16 mph 1017.3mb 55f 56f
12:30pm  -   -   -  13 18 mph 1017.4mb 55f 56f
12:20pm  -   -   -  16 18 mph 1017.3mb 55f 56f
12:10pm  -   -   -  16 18 mph 1017.5mb 55f 56f
12:00pm  -   -   -  16 20 mph 1017.5mb 55f 55f
11:50am 2.5ft 4s 3s 16 18 mph 1017.5mb 55f 55f
11:40am  -   -   -  16 18 mph 1017.6mb 55f 55f
11:30am  -   -   -  16 18 mph 1017.9mb 55f 55f
11:20am  -   -   -  16 18 mph 1017.9mb 55f 55f
11:10am  -   -   -  16 20 mph 1018mb 55f 55f
11:00am  -   -   -  18 22 mph 1018.3mb 55f 55f
10:50am 2.5ft 4s 3s 18 22 mph 1018.3mb 55f 55f
10:40am 2.5ft  -  3s 18 22 mph 1018.4mb 55f 55f
10:30am  -   -   -  20 25 mph 1018.3mb 55f 55f
10:20am  -   -   -  18 22 mph 1018.3mb 55f 55f
10:10am  -   -   -  18 20 mph 1018.1mb 54f 55f
10:00am  -   -   -  18 22 mph 1018mb 55f 55f
9:50am 2.5ft 4s 3s 20 25 mph 1018mb 55f 54f
9:40am  -   -   -  18 22 mph 1018mb 54f 54f
9:30am  -   -   -  20 22 mph 1017.9mb 54f 54f
9:20am  -   -   -  18 22 mph 1017.8mb 54f 54f
9:10am  -   -   -  18 25 mph 1017.8mb 55f 54f
9:00am  -   -   -  18 22 mph 1017.8mb 54f 54f
8:50am 3ft 4s 4s 18 25 mph 1017.9mb 54f 54f
8:40am  -   -   -  18 22 mph 1017.8mb 54f 54f
8:30am  -   -   -  18 25 mph 1017.7mb 54f 54f
8:20am  -   -   -  20 25 mph 1017.8mb 54f 54f
8:10am  -   -   -  20 22 mph 1017.6mb 54f 54f
8:00am  -   -   -  20 25 mph - 54f -
7:50am 3.5ft 5s 4s 20 25 mph 1017.6mb 54f 54f
7:40am  -   -   -  20 25 mph 1017.6mb 55f 54f
7:30am  -   -   -  22 25 mph 1017.4mb 55f 54f
7:20am  -   -   -  22 27 mph 1017.3mb 55f 54f
7:10am  -   -   -  20 25 mph 1017mb 55f 53f
7:00am  -   -   -  22 27 mph 1017mb 55f 53f
6:50am 3.5ft 5s 4s 22 27 mph 1017mb 55f 53f
6:40am  -   -   -  22 27 mph 1016.8mb 55f 53f
6:30am  -   -   -  22 27 mph 1016.9mb 55f 53f
6:20am  -   -   -  22 27 mph 1016.9mb 55f 53f
6:10am  -   -   -  22 29 mph 1016.9mb 55f 53f
6:00am  -   -   -  25 31 mph 1016.5mb 55f 53f
5:50am 3ft 4s 4s 25 31 mph 1016.4mb 55f 54f
5:40am  -   -   -  25 31 mph 1016.2mb 55f 54f
5:30am  -   -   -  22 29 mph 1015.9mb 55f 55f
5:20am  -   -   -  22 29 mph 1015.9mb 55f 55f
5:10am  -   -   -  25 31 mph 1015.8mb 55f 55f
5:00am  -   -   -  22 27 mph 1015.6mb 55f 55f
4:50am 1.6ft 4s 3s 20 25 mph 1015.6mb 55f 56f
4:40am  -   -   -  20 27 mph 1015.6mb 55f 56f
4:30am  -   -   -  20 27 mph 1015.5mb 55f 56f
4:20am  -   -   -  18 22 mph 1015.5mb 55f 56f
4:10am  -   -   -  16 20 mph 1015.4mb 55f 57f
4:00am  -   -   -  11 13 mph 1015.4mb 55f 57f
3:50am 1.3ft 3s 3s 11 13 mph 1015.2mb 55f 57f
3:40am  -   -   -  13 16 mph 1015.3mb 55f 57f
3:30am  -   -   -  13 18 mph 1015.1mb 55f 57f
3:20am  -   -   -  13 16 mph 1015.3mb 55f 57f
3:10am  -   -   -  11 16 mph 1015.3mb - 57f
3:00am  -   -   -  13 16 mph 1015.2mb 55f 58f
2:50am 1ft 3s 3s 16 20 mph 1015.2mb 55f 58f
2:40am  -   -   -  16 20 mph 1015.3mb 55f 58f
2:30am  -   -   -  16 18 mph 1015.3mb 55f 58f
2:20am  -   -   -  13 18 mph 1015.2mb 55f 58f
2:10am  -   -   -  13 16 mph 1015.1mb 55f 58f
2:00am  -   -   -  9 13 mph 1015mb 55f 57f
1:50am 1ft 3s 3s 9 11 mph 1015mb 55f 58f
1:40am  -   -   -  9 11 mph 1014.9mb 55f 58f
1:30am  -   -   -  9 11 mph 1014.9mb 55f 58f
1:20am  -   -   -  9 11 mph 1014.8mb 55f 58f
1:10am  -   -   -  9 9 mph 1014.9mb 55f 58f
1:00am  -   -   -  7 9 mph 1015mb 55f 58f
12:50am 0.7ft  -  3s 9 9 mph 1015.1mb 55f 58f
12:40am  -   -   -  9 9 mph 1015.1mb 55f 58f
12:30am  -   -   -  9 11 mph 1015mb 55f 59f
12:20am  -   -   -  9 9 mph 1015.2mb 55f 59f
12:10am  -   -   -  9 11 mph 1015.2mb 55f 59f
12:00am  -   -   -  9 11 mph 1015.2mb 55f 58f
Sun 05/21 11:50pm 0.7ft  -  3s 7 9 mph 1015.1mb 55f 59f
11:40pm  -   -   -  7 9 mph 1014.9mb 55f 59f
11:30pm  -   -   -  7 7 mph 1015mb 55f 59f
11:20pm  -   -   -  7 7 mph 1014.9mb 55f 59f
11:10pm  -   -   -  7 7 mph 1014.8mb 55f 59f
11:00pm  -   -   -  7 9 mph 1014.7mb 55f 60f
10:50pm 0.7ft  -  3s 9 11 mph 1014.6mb 55f 60f
10:40pm 0.7ft  -  3s 9 11 mph 1014.4mb 55f 60f
10:30pm  -   -   -  9 13 mph 1014.4mb 55f 60f
10:20pm  -   -   -  7 9 mph 1014.4mb 55f 60f
10:10pm  -   -   -  7 9 mph 1014.2mb 55f 59f
10:00pm  -   -   -  7 9 mph 1014.1mb 55f 60f
9:50pm 0.7ft  -  3s 9 9 mph 1014mb 55f 60f
9:40pm 0.7ft  -  3s 9 9 mph 1013.9mb 55f 60f
9:30pm  -   -   -  9 11 mph 1013.7mb 55f 62f
9:20pm  -   -   -  9 11 mph 1013.4mb 55f 60f
9:10pm  -   -   -  7 9 mph 1013.3mb 55f 60f
9:00pm  -   -   -  9 11 mph 1013.3mb 55f 61f
8:50pm 1ft 4s 3s 9 13 mph 1013.3mb 55f 61f
8:40pm 1ft  -  3s 9 11 mph 1013.2mb 55f 61f
8:30pm  -   -   -  9 11 mph 1013.2mb 55f 60f
8:20pm  -   -   -  7 9 mph 1013.2mb 55f 60f
8:10pm  -   -   -  7 9 mph 1013.2mb 55f 61f
8:00pm  -   -   -  7 9 mph 1013.1mb 55f 62f
7:50pm 1ft 3s 3s 9 13 mph 1013.1mb 55f 63f
7:40pm  -   -   -  9 11 mph 1013.1mb 55f 62f
7:30pm  -   -   -  7 11 mph 1012.9mb 55f 63f
7:20pm  -   -   -  9 11 mph 1012.8mb 55f 63f
7:10pm  -   -   -  9 11 mph 1012.8mb 55f 62f
7:00pm  -   -   -  9 11 mph 1012.8mb 55f 63f
6:50pm 1ft 3s 3s 9 11 mph 1012.6mb 55f 61f
6:40pm  -   -   -  9 11 mph 1012.6mb 55f 62f
6:30pm  -   -   -  11 11 mph 1012.5mb 55f 63f
6:20pm  -   -   -  11 13 mph 1012.3mb 55f 65f
6:10pm  -   -   -  11 16 mph 1012.5mb 55f 65f
6:00pm  -   -   -  9 16 mph 1012.7mb 55f 61f
5:50pm 1ft 5s 3s 11 16 mph 1013.1mb 55f 62f
5:40pm  -   -   -  11 13 mph 1012.6mb 55f 62f
5:30pm  -   -   -  11 13 mph 1012.6mb 55f 62f
5:20pm  -   -   -  11 13 mph 1012.7mb 55f 62f
5:10pm  -   -   -  13 13 mph 1012.6mb 55f 62f
5:00pm  -   -   -  13 16 mph 1012.6mb 55f 62f
4:50pm 1ft 4s 3s 11 13 mph 1012.7mb 55f 62f
4:40pm  -   -   -  13 13 mph 1012.7mb 55f 62f
4:30pm  -   -   -  11 13 mph 1012.7mb 56f 62f
4:20pm  -   -   -  11 13 mph 1012.7mb 56f 62f
4:10pm  -   -   -  11 13 mph 1012.8mb 56f 62f
4:00pm  -   -   -  11 11 mph 1012.9mb 55f 62f
3:50pm 1ft 5s 4s 11 13 mph 1013mb 55f 62f
3:40pm  -   -   -  11 11 mph 1013.2mb 55f 62f
3:30pm  -   -   -  11 11 mph 1013.3mb 55f 62f
3:20pm  -   -   -  9 11 mph 1013.3mb 55f 62f
3:10pm  -   -   -  9 11 mph 1013.4mb 55f 62f
3:00pm  -   -   -  9 11 mph 1013.4mb 55f 62f
2:50pm 1ft 5s 4s 11 11 mph 1013.6mb 55f 62f
2:40pm  -   -   -  9 11 mph 1013.8mb 55f 62f
2:30pm  -   -   -  9 9 mph 1013.9mb 55f 61f
2:20pm  -   -   -  9 11 mph 1013.7mb 55f 61f
2:10pm  -   -   -  9 9 mph 1013.9mb 55f 61f
2:00pm  -   -   -  9 11 mph 1014mb 55f 61f
1:50pm 1.3ft 5s 4s 7 9 mph 1014mb 55f 60f
1:40pm 1.3ft  -  4s 9 9 mph 1014.3mb 55f 60f
1:30pm  -   -   -  9 9 mph 1014.5mb 55f 60f
1:20pm  -   -   -  7 9 mph 1014.7mb 55f 60f
1:10pm  -   -   -  7 9 mph 1014.7mb 55f 60f
1:00pm  -   -   -  9 11 mph 1014.6mb 55f 60f
12:50pm 1.3ft 4s 4s 11 11 mph 1014.6mb 55f 60f
12:40pm  -   -   -  11 11 mph 1014.7mb 55f 60f
12:30pm  -   -   -  11 11 mph 1014.8mb 55f 60f
12:20pm  -   -   -  9 11 mph 1015mb 55f 60f
12:10pm  -   -   -  9 9 mph 1015.3mb 55f 59f
12:00pm  -   -   -  7 9 mph 1015.5mb 55f 59f
11:50am 1.3ft 5s 4s 7 9 mph 1015.5mb 55f 59f
11:40am 1.3ft  -  4s 7 9 mph 1015.7mb 55f 59f
11:30am  -   -   -  7 7 mph 1015.8mb 55f 59f
11:20am  -   -   -  7 9 mph 1015.8mb 55f 59f
11:10am  -   -   -  9 9 mph 1015.6mb 54f 59f
11:00am  -   -   -  9 9 mph 1015.7mb 54f 59f
10:50am 1.6ft 5s 4s 9 11 mph 1015.7mb 54f 59f
10:40am 1.6ft  -  4s 9 11 mph 1015.8mb 54f 59f
10:30am  -   -   -  9 9 mph - 54f -
10:20am  -   -   -  9 9 mph 1015.9mb 54f 59f
10:10am  -   -   -  9 9 mph 1016mb 54f 60f
10:00am  -   -   -  11 11 mph 1016mb 54f 60f
9:50am 1.6ft 5s 4s 11 11 mph 1015.9mb 54f 60f
9:40am 1.6ft  -  4s 9 11 mph 1016mb 54f 59f
9:30am  -   -   -  9 11 mph 1016.1mb 54f 59f
9:20am  -   -   -  9 9 mph 1016.2mb 54f 59f
9:10am  -   -   -  9 9 mph 1016.2mb 54f 59f
9:00am  -   -   -  9 9 mph 1016.1mb 54f 59f
8:50am 1.6ft 5s 4s 9 9 mph 1016mb 54f 59f
8:40am  -   -   -  7 9 mph 1016mb 54f 59f
8:30am 1.6ft  -  4s 7 9 mph 1016.1mb - 59f
8:20am  -   -   -  7 9 mph 1016.1mb 54f 58f
8:10am  -   -   -  7 9 mph - 54f -
8:00am  -   -   -  7 7 mph 1016.4mb 54f 57f
7:50am 1.6ft 5s 4s 4 7 mph 1016.2mb 54f 56f
7:40am  -   -   -  7 9 mph 1016.2mb 54f 56f
7:30am  -   -   -  7 9 mph 1016.2mb 54f 56f
7:20am  -   -   -  9 9 mph 1016.1mb 54f 56f
7:10am  -   -   -  9 11 mph 1016mb 54f 57f
7:00am  -   -   -  9 11 mph 1016.1mb 54f 56f
6:50am 2ft 5s 4s 9 9 mph 1016.2mb 54f 56f
6:40am 2ft  -  4s 9 11 mph 1016.3mb 54f 56f
6:30am  -   -   -  9 9 mph 1016.4mb 54f 57f
6:20am  -   -   -  9 9 mph 1016.4mb 54f 57f
6:10am  -   -   -  9 9 mph 1016.2mb 54f 57f
6:00am  -   -   -  7 7 mph 1016.2mb 54f 57f
5:50am 2ft 5s 4s 7 7 mph 1016mb 54f 56f
5:40am  -   -   -  7 9 mph 1016mb 54f 56f
5:30am  -   -   -  7 9 mph 1016.1mb 54f 57f
5:20am  -   -   -  7 9 mph 1016mb 54f 57f
5:10am  -   -   -  7 7 mph 1016mb 54f 57f
5:00am  -   -   -  7 7 mph 1015.7mb 54f 58f
4:50am 2.5ft 6s 4s 4 7 mph 1015.8mb 54f 59f
4:40am 2.5ft  -  4s 2 4 mph 1015.7mb 54f 60f
4:30am  -   -   -   -  2 mph 1015.6mb 54f 60f
4:20am  -   -   -  2 2 mph 1015.5mb 54f 59f
4:10am  -   -   -  2 2 mph 1015.4mb 54f 59f
4:00am  -   -   -  2 2 mph 1015.4mb 54f 59f
3:50am 2.5ft 6s 4s 2 4 mph 1015.7mb 54f 59f
3:40am  -   -   -  4 9 mph 1015.4mb 54f 59f
3:30am  -   -   -  7 9 mph - 54f -
3:20am  -   -   -  7 9 mph 1015.4mb 54f 60f
3:10am  -   -   -  9 9 mph 1015.4mb 54f 60f
3:00am  -   -   -  9 9 mph 1015.4mb 54f 60f
2:50am 3ft 6s 4s 11 13 mph 1015.1mb 54f 60f
2:40am 3ft  -  4s 9 11 mph 1015.1mb 54f 60f
2:30am  -   -   -  9 11 mph 1015.3mb 54f 61f
2:20am  -   -   -  16 20 mph 1015mb 54f 62f
2:10am  -   -   -  13 18 mph 1015mb 54f 62f
2:00am  -   -   -  16 18 mph 1015.2mb 54f 62f
1:50am 3.5ft 6s 5s 13 20 mph 1015.5mb 54f 60f
1:40am  -   -   -  13 16 mph 1015.6mb 54f 60f
1:30am  -   -   -  11 13 mph 1015.8mb 54f 59f
1:20am  -   -   -  11 11 mph 1015.8mb 54f 59f
1:10am  -   -   -  11 11 mph 1015.2mb 54f 58f
1:00am  -   -   -  9 11 mph 1015.4mb 54f 58f
12:50am 3.5ft 6s 5s 9 11 mph 1015.7mb 54f 58f
12:40am  -   -   -  9 11 mph 1016.1mb 54f 58f
12:30am  -   -   -  9 11 mph 1016.5mb - 58f
12:20am  -   -   -  11 11 mph 1016.6mb 54f 57f
12:10am  -   -   -  11 13 mph 1016.7mb 54f 57f
12:00am  -   -   -  11 13 mph 1017mb 54f 57f
Sat 05/20 11:50pm 4ft 6s 5s 11 11 mph 1017.1mb 54f 57f
11:40pm  -   -   -  9 11 mph 1017.2mb 54f 57f
11:30pm  -   -   -  11 13 mph 1017.3mb 54f 57f
11:20pm  -   -   -  11 13 mph 1017.4mb 54f 57f
11:10pm  -   -   -  11 13 mph 1017.3mb 54f 57f
11:00pm  -   -   -  13 16 mph 1017.3mb 54f 57f
10:50pm 4.5ft 6s 5s 13 16 mph 1017.4mb 54f 56f
10:40pm 4.5ft  -  5s 16 18 mph 1017.3mb 54f 56f
10:30pm  -   -   -  16 18 mph 1017.6mb 54f 56f
10:20pm  -   -   -  16 20 mph 1017.6mb 54f 56f
10:10pm  -   -   -  18 20 mph 1017.5mb 54f 56f
10:00pm  -   -   -  18 22 mph 1017.4mb 54f 56f
9:50pm 5.5ft 6s 5s 18 22 mph 1017.6mb 54f 56f
9:40pm 5.5ft  -  5s 20 22 mph 1017.6mb 54f 56f
9:30pm  -   -   -  18 25 mph 1017.8mb 54f 56f
9:20pm  -   -   -  18 22 mph 1017.8mb 54f 56f
9:10pm  -   -   -  18 22 mph 1018mb 54f 56f
9:00pm  -   -   -  18 22 mph 1018mb 54f 56f
8:50pm 6ft 7s 5s 18 22 mph 1018mb 54f 56f
8:10pm  -   -   -  20 25 mph 1018.2mb 54f 56f
8:00pm  -   -   -  20 25 mph 1018.2mb 54f 56f
7:50pm 6ft 6s 5s 20 25 mph 1018.2mb 54f 56f
7:40pm  -   -   -  20 27 mph 1018.1mb 54f 56f
7:30pm  -   -   -  22 29 mph 1018.1mb 54f 56f
7:20pm  -   -   -  25 31 mph 1017.9mb 54f 56f
7:10pm  -   -   -  27 31 mph 1017.9mb 54f 56f
7:00pm  -   -   -  27 34 mph 1018.1mb 54f 56f
6:50pm 5ft 7s 5s 27 34 mph 1018.5mb 54f 56f
6:40pm 5ft  -  5s 25 34 mph 1018.6mb 54f 56f
6:30pm  -   -   -  25 29 mph 1018.8mb 54f 56f
6:20pm  -   -   -  25 31 mph 1019.1mb 54f 56f
6:10pm  -   -   -  25 31 mph 1019.5mb 54f 56f
6:00pm  -   -   -  22 27 mph 1019.7mb 54f 56f
5:50pm 5.5ft 7s 5s 22 29 mph 1019.8mb 54f 55f
5:40pm  -   -   -  22 27 mph 1019.9mb 54f 56f
5:30pm  -   -   -  22 29 mph 1019.8mb 54f 55f
5:20pm  -   -   -  22 29 mph 1019.9mb 54f 55f
5:10pm  -   -   -  22 27 mph 1020.3mb 54f 55f
5:00pm  -   -   -  25 31 mph 1020.2mb 54f 55f
4:50pm 5.5ft 7s 5s 25 31 mph 1019.9mb 54f 54f
4:40pm 5.5ft  -  5s 27 34 mph 1019.2mb 54f 54f
4:30pm  -   -   -  27 34 mph 1019.4mb 54f 54f
4:20pm  -   -   -  27 31 mph 1020.2mb 54f 54f
4:10pm  -   -   -  22 27 mph 1021mb 54f 53f
4:00pm  -   -   -  18 22 mph 1022.5mb 54f 54f
3:50pm 5.5ft 7s 5s 18 20 mph 1022.7mb 54f 54f
3:40pm  -   -   -  16 20 mph 1022.8mb 54f 54f
3:30pm  -   -   -  18 25 mph 1023.1mb 54f 54f
3:20pm  -   -   -  22 27 mph 1021.5mb 54f 54f
3:10pm  -   -   -  20 27 mph 1021.5mb 54f 54f
3:00pm  -   -   -  22 27 mph 1021.5mb 54f 54f
2:50pm 5ft 7s 5s 20 25 mph 1021.8mb 54f 54f
2:40pm 5ft  -  5s 20 27 mph 1021.9mb 54f 53f
2:30pm  -   -   -  20 27 mph 1021.9mb 54f 53f
2:20pm  -   -   -  22 27 mph 1021.9mb 54f 53f
2:10pm  -   -   -  20 25 mph 1021.9mb 54f 53f
2:00pm  -   -   -  20 27 mph 1022.5mb 54f 53f
1:50pm 5ft 7s 5s 22 27 mph 1022.1mb 54f 53f
1:40pm  -   -   -  20 27 mph 1022.3mb 54f 53f
1:30pm  -   -   -  22 27 mph 1022.4mb 54f 53f
1:20pm  -   -   -  20 25 mph 1022.5mb 54f 53f
1:10pm  -   -   -  20 25 mph 1022.7mb 54f 53f
1:00pm  -   -   -  20 25 mph 1022.8mb 54f 53f
12:50pm 5ft 6s 5s 18 25 mph 1023.1mb 54f 53f
12:40pm  -   -   -  20 25 mph 1023mb 54f 53f
12:30pm  -   -   -  22 25 mph 1022.9mb 54f 53f
12:20pm  -   -   -  20 25 mph 1022.9mb 54f 53f
12:10pm  -   -   -  20 27 mph 1023.1mb 54f 53f
12:00pm  -   -   -  20 25 mph 1023.2mb 54f 53f